Wetterdaten: Sonntag, 22.11.2015
Datum Zeit Temp. A. Feuchte A. Luftdruck Regen Wind Richtung Richtung Sonnenschein ET UV Solar Taupunkt Windchill Windben Empfang
22.11.2015 00:00 1,2 C 93 % 997,8 hPa 0,0 l/m 4,5 km/h (1 Bft) SW 226 0 min 0,000 mm 0,0 UV-I 0 W/m 0,2 C 1,2 C 8,0 km/h (2 Bft) 96,90 %
22.11.2015 00:05 1,2 C 93 % 997,8 hPa 0,0 l/m 5,3 km/h (1 Bft) S-SW 210 0 min 0,000 mm 0,0 UV-I 0 W/m 0,2 C 1,2 C 9,7 km/h (2 Bft) 97,35 %
22.11.2015 00:10 1,2 C 93 % 998,0 hPa 0,0 l/m 6,2 km/h (2 Bft) SW 234 0 min 0,000 mm 0,0 UV-I 0 W/m 0,2 C 1,2 C 11,3 km/h (2 Bft) 95,00 %
22.11.2015 00:15 1,3 C 93 % 998,0 hPa 0,0 l/m 6,2 km/h (2 Bft) SW 234 0 min 0,000 mm 0,0 UV-I 0 W/m 0,3 C 1,3 C 11,3 km/h (2 Bft) 96,33 %
22.11.2015 00:20 1,4 C 93 % 998,1 hPa 0,0 l/m 6,2 km/h (2 Bft) S-SW 202 0 min 0,000 mm 0,0 UV-I 0 W/m 0,4 C 1,4 C 9,7 km/h (2 Bft) 96,69 %
22.11.2015 00:25 1,4 C 92 % 998,1 hPa 0,0 l/m 7,3 km/h (2 Bft) W-SW 237 0 min 0,000 mm 0,0 UV-I 0 W/m 0,2 C 0,5 C 17,7 km/h (3 Bft) 97,56 %
22.11.2015 00:30 1,7 C 91 % 998,2 hPa 0,0 l/m 10,2 km/h (2 Bft) W-SW 250 0 min 0,000 mm 0,0 UV-I 0 W/m 0,4 C -1,7 C 19,3 km/h (3 Bft) 98,21 %
22.11.2015 00:35 1,8 C 91 % 998,2 hPa 0,0 l/m 7,9 km/h (2 Bft) W-SW 248 0 min 0,000 mm 0,0 UV-I 0 W/m 0,5 C 0,3 C 14,5 km/h (3 Bft) 95,83 %
22.11.2015 00:40 1,8 C 91 % 998,3 hPa 0,0 l/m 7,5 km/h (2 Bft) SW 221 0 min 0,000 mm 0,0 UV-I 0 W/m 0,5 C 0,7 C 12,9 km/h (3 Bft) 100,00 %
22.11.2015 00:45 1,9 C 91 % 998,3 hPa 0,0 l/m 7,1 km/h (2 Bft) W 268 0 min 0,000 mm 0,0 UV-I 0 W/m 0,6 C 1,2 C 11,3 km/h (2 Bft) 100,00 %
22.11.2015 00:50 2,0 C 90 % 998,3 hPa 0,0 l/m 8,6 km/h (2 Bft) W-SW 248 0 min 0,000 mm 0,0 UV-I 0 W/m 0,5 C -0,1 C 12,9 km/h (3 Bft) 100,00 %
22.11.2015 00:55 2,1 C 90 % 998,4 hPa 0,0 l/m 12,0 km/h (2 Bft) W 259 0 min 0,000 mm 0,0 UV-I 0 W/m 0,6 C -2,6 C 25,7 km/h (4 Bft) 99,06 %
22.11.2015 01:00 2,2 C 90 % 998,5 hPa 0,0 l/m 13,5 km/h (3 Bft) W 267 0 min 0,000 mm 0,0 UV-I 0 W/m 0,7 C -3,4 C 20,9 km/h (4 Bft) 100,00 %
22.11.2015 01:05 2,3 C 89 % 998,6 hPa 0,0 l/m 14,4 km/h (3 Bft) N-NW 344 0 min 0,000 mm 0,0 UV-I 0 W/m 0,7 C -3,9 C 29,0 km/h (5 Bft) 99,19 %
22.11.2015 01:10 2,4 C 88 % 998,6 hPa 0,0 l/m 23,1 km/h (4 Bft) W-NW 293 0 min 0,000 mm 0,0 UV-I 0 W/m 0,6 C -7,8 C 40,2 km/h (6 Bft) 99,13 %
22.11.2015 01:15 2,4 C 88 % 998,7 hPa 0,0 l/m 19,5 km/h (3 Bft) W-SW 255 0 min 0,000 mm 0,0 UV-I 0 W/m 0,6 C -6,3 C 30,6 km/h (5 Bft) 100,00 %
22.11.2015 01:20 2,4 C 86 % 998,8 hPa 0,0 l/m 18,7 km/h (3 Bft) S-SW 211 0 min 0,000 mm 0,0 UV-I 0 W/m 0,3 C -6,0 C 32,2 km/h (5 Bft) 99,13 %
22.11.2015 01:25 2,4 C 86 % 998,9 hPa 0,0 l/m 16,7 km/h (3 Bft) W 260 0 min 0,000 mm 0,0 UV-I 0 W/m 0,3 C -5,0 C 30,6 km/h (5 Bft) 97,94 %
22.11.2015 01:30 2,3 C 85 % 998,9 hPa 0,0 l/m 19,5 km/h (3 Bft) W-SW 248 0 min 0,000 mm 0,0 UV-I 0 W/m 0,0 C -6,4 C 32,2 km/h (5 Bft) 99,31 %
22.11.2015 01:35 2,3 C 85 % 999,0 hPa 0,0 l/m 15,7 km/h (3 Bft) W-SW 247 0 min 0,000 mm 0,0 UV-I 0 W/m 0,0 C -4,6 C 30,6 km/h (5 Bft) 100,00 %
22.11.2015 01:40 2,2 C 85 % 999,1 hPa 0,0 l/m 16,8 km/h (3 Bft) W-SW 253 0 min 0,000 mm 0,0 UV-I 0 W/m -0,1 C -5,3 C 27,4 km/h (4 Bft) 98,26 %
22.11.2015 01:45 2,2 C 84 % 999,2 hPa 0,0 l/m 16,7 km/h (3 Bft) W-SW 247 0 min 0,000 mm 0,0 UV-I 0 W/m -0,2 C -5,2 C 29,0 km/h (5 Bft) 100,00 %
22.11.2015 01:50 2,2 C 85 % 999,2 hPa 0,0 l/m 17,2 km/h (3 Bft) W-NW 282 0 min 0,000 mm 0,0 UV-I 0 W/m -0,1 C -5,5 C 30,6 km/h (5 Bft) 100,00 %
22.11.2015 01:55 2,1 C 85 % 999,3 hPa 0,0 l/m 13,0 km/h (3 Bft) W-SW 249 0 min 0,000 mm 0,0 UV-I 0 W/m -0,2 C -3,2 C 22,5 km/h (4 Bft) 100,00 %
22.11.2015 02:00 2,1 C 85 % 999,4 hPa 0,0 l/m 15,7 km/h (3 Bft) W-SW 258 0 min 0,025 mm 0,0 UV-I 0 W/m -0,2 C -4,8 C 25,7 km/h (4 Bft) 96,75 %
22.11.2015 02:05 2,0 C 86 % 999,5 hPa 0,0 l/m 17,2 km/h (3 Bft) W-SW 243 0 min 0,000 mm 0,0 UV-I 0 W/m -0,1 C -5,7 C 29,0 km/h (5 Bft) 96,52 %
22.11.2015 02:10 2,0 C 85 % 999,6 hPa 0,0 l/m 17,4 km/h (3 Bft) W-SW 246 0 min 0,000 mm 0,0 UV-I 0 W/m -0,3 C -5,8 C 32,2 km/h (5 Bft) 96,49 %
22.11.2015 02:15 2,0 C 86 % 999,6 hPa 0,0 l/m 14,0 km/h (3 Bft) W-SW 248 0 min 0,000 mm 0,0 UV-I 0 W/m -0,1 C -4,0 C 24,1 km/h (4 Bft) 96,52 %
22.11.2015 02:20 1,9 C 86 % 999,5 hPa 0,0 l/m 14,5 km/h (3 Bft) W 262 0 min 0,000 mm 0,0 UV-I 0 W/m -0,2 C -4,4 C 25,7 km/h (4 Bft) 97,46 %
22.11.2015 02:25 1,9 C 86 % 999,6 hPa 0,0 l/m 15,7 km/h (3 Bft) W-SW 250 0 min 0,000 mm 0,0 UV-I 0 W/m -0,2 C -5,1 C 25,7 km/h (4 Bft) 95,73 %
22.11.2015 02:30 1,9 C 85 % 999,6 hPa 0,0 l/m 19,0 km/h (3 Bft) W-SW 257 0 min 0,000 mm 0,0 UV-I 0 W/m -0,3 C -6,7 C 29,0 km/h (5 Bft) 95,54 %
22.11.2015 02:35 1,9 C 85 % 999,7 hPa 0,0 l/m 15,1 km/h (3 Bft) W 262 0 min 0,000 mm 0,0 UV-I 0 W/m -0,3 C -4,7 C 22,5 km/h (4 Bft) 99,19 %
22.11.2015 02:40 1,9 C 85 % 999,6 hPa 0,0 l/m 13,0 km/h (3 Bft) W-SW 250 0 min 0,000 mm 0,0 UV-I 0 W/m -0,3 C -3,5 C 32,2 km/h (5 Bft) 99,15 %
22.11.2015 02:45 1,9 C 85 % 999,6 hPa 0,0 l/m 17,1 km/h (3 Bft) W-SW 253 0 min 0,000 mm 0,0 UV-I 0 W/m -0,3 C -5,8 C 30,6 km/h (5 Bft) 98,31 %
22.11.2015 02:50 1,9 C 85 % 999,6 hPa 0,0 l/m 14,4 km/h (3 Bft) W 262 0 min 0,000 mm 0,0 UV-I 0 W/m -0,3 C -4,3 C 27,4 km/h (4 Bft) 99,15 %
22.11.2015 02:55 1,9 C 85 % 999,6 hPa 0,0 l/m 14,4 km/h (3 Bft) W 269 0 min 0,000 mm 0,0 UV-I 0 W/m -0,3 C -4,3 C 29,0 km/h (5 Bft) 98,35 %
22.11.2015 03:00 1,9 C 85 % 999,5 hPa 0,0 l/m 13,5 km/h (3 Bft) W 262 0 min 0,026 mm 0,0 UV-I 0 W/m -0,3 C -3,8 C 24,1 km/h (4 Bft) 99,17 %
22.11.2015 03:05 1,9 C 86 % 999,5 hPa 0,0 l/m 11,6 km/h (2 Bft) W 263 0 min 0,000 mm 0,0 UV-I 0 W/m -0,2 C -2,5 C 19,3 km/h (3 Bft) 98,17 %
22.11.2015 03:10 1,9 C 86 % 999,5 hPa 0,0 l/m 11,7 km/h (2 Bft) SW 215 0 min 0,000 mm 0,0 UV-I 0 W/m -0,2 C -2,6 C 17,7 km/h (3 Bft) 99,15 %
22.11.2015 03:15 1,9 C 85 % 999,6 hPa 0,0 l/m 18,5 km/h (3 Bft) W-SW 251 0 min 0,000 mm 0,0 UV-I 0 W/m -0,3 C -6,5 C 25,7 km/h (4 Bft) 97,50 %
22.11.2015 03:20 2,0 C 85 % 999,6 hPa 0,0 l/m 12,1 km/h (2 Bft) W-SW 240 0 min 0,000 mm 0,0 UV-I 0 W/m -0,3 C -2,8 C 20,9 km/h (4 Bft) 98,31 %
22.11.2015 03:25 2,0 C 85 % 999,6 hPa 0,0 l/m 15,0 km/h (3 Bft) W-SW 241 0 min 0,000 mm 0,0 UV-I 0 W/m -0,3 C -4,6 C 25,7 km/h (4 Bft) 99,13 %
22.11.2015 03:30 2,0 C 85 % 999,7 hPa 0,0 l/m 12,9 km/h (3 Bft) W 277 0 min 0,000 mm 0,0 UV-I 0 W/m -0,3 C -3,3 C 24,1 km/h (4 Bft) 100,00 %
22.11.2015 03:35 2,0 C 85 % 999,6 hPa 0,0 l/m 12,3 km/h (3 Bft) SW 222 0 min 0,000 mm 0,0 UV-I 0 W/m -0,3 C -2,9 C 20,9 km/h (4 Bft) 100,00 %
22.11.2015 03:40 1,9 C 86 % 999,6 hPa 0,0 l/m 10,7 km/h (2 Bft) S-SW 199 0 min 0,000 mm 0,0 UV-I 0 W/m -0,2 C -1,9 C 16,1 km/h (3 Bft) 100,00 %
22.11.2015 03:45 1,9 C 87 % 999,6 hPa 0,0 l/m 9,8 km/h (2 Bft) W-SW 243 0 min 0,000 mm 0,0 UV-I 0 W/m -0,0 C -1,2 C 17,7 km/h (3 Bft) 99,15 %
22.11.2015 03:50 1,8 C 87 % 999,6 hPa 0,0 l/m 12,3 km/h (3 Bft) W-SW 246 0 min 0,000 mm 0,0 UV-I 0 W/m -0,1 C -3,1 C 20,9 km/h (4 Bft) 99,15 %
22.11.2015 03:55 1,8 C 87 % 999,6 hPa 0,0 l/m 8,4 km/h (2 Bft) S-SW 195 0 min 0,000 mm 0,0 UV-I 0 W/m -0,1 C -0,1 C 16,1 km/h (3 Bft) 100,00 %
22.11.2015 04:00 1,8 C 87 % 999,6 hPa 0,0 l/m 9,4 km/h (2 Bft) SW 215 0 min 0,025 mm 0,0 UV-I 0 W/m -0,1 C -1,0 C 16,1 km/h (3 Bft) 99,17 %
22.11.2015 04:05 1,7 C 87 % 999,6 hPa 0,0 l/m 10,7 km/h (2 Bft) SW 215 0 min 0,000 mm 0,0 UV-I 0 W/m -0,2 C -2,1 C 17,7 km/h (3 Bft) 98,02 %
22.11.2015 04:10 1,7 C 88 % 999,5 hPa 0,0 l/m 9,3 km/h (2 Bft) SW 217 0 min 0,000 mm 0,0 UV-I 0 W/m -0,1 C -1,0 C 19,3 km/h (3 Bft) 96,49 %
22.11.2015 04:15 1,7 C 88 % 999,6 hPa 0,0 l/m 10,2 km/h (2 Bft) S-SW 212 0 min 0,000 mm 0,0 UV-I 0 W/m -0,1 C -1,7 C 17,7 km/h (3 Bft) 95,04 %
22.11.2015 04:20 1,7 C 87 % 999,5 hPa 0,0 l/m 10,9 km/h (2 Bft) SW 219 0 min 0,000 mm 0,0 UV-I 0 W/m -0,2 C -2,3 C 22,5 km/h (4 Bft) 98,21 %
22.11.2015 04:25 1,6 C 88 % 999,5 hPa 0,0 l/m 9,2 km/h (2 Bft) S-SW 209 0 min 0,000 mm 0,0 UV-I 0 W/m -0,2 C -1,0 C 19,3 km/h (3 Bft) 94,31 %
22.11.2015 04:30 1,7 C 88 % 999,5 hPa 0,0 l/m 11,6 km/h (2 Bft) W-SW 240 0 min 0,000 mm 0,0 UV-I 0 W/m -0,1 C -2,8 C 19,3 km/h (3 Bft) 96,52 %
22.11.2015 04:35 1,7 C 88 % 999,6 hPa 0,0 l/m 11,5 km/h (2 Bft) S-SW 213 0 min 0,000 mm 0,0 UV-I 0 W/m -0,1 C -2,7 C 16,1 km/h (3 Bft) 97,50 %
22.11.2015 04:40 1,7 C 88 % 999,5 hPa 0,0 l/m 11,0 km/h (2 Bft) SW 232 0 min 0,000 mm 0,0 UV-I 0 W/m -0,1 C -2,3 C 16,1 km/h (3 Bft) 99,13 %
22.11.2015 04:45 1,7 C 87 % 999,6 hPa 0,0 l/m 11,2 km/h (2 Bft) SW 234 0 min 0,000 mm 0,0 UV-I 0 W/m -0,2 C -2,5 C 20,9 km/h (4 Bft) 98,26 %
22.11.2015 04:50 1,7 C 87 % 999,7 hPa 0,0 l/m 12,4 km/h (3 Bft) W-SW 246 0 min 0,000 mm 0,0 UV-I 0 W/m -0,2 C -3,3 C 20,9 km/h (4 Bft) 98,33 %
22.11.2015 04:55 1,7 C 86 % 999,7 hPa 0,0 l/m 10,4 km/h (2 Bft) SW 215 0 min 0,000 mm 0,0 UV-I 0 W/m -0,4 C -1,9 C 17,7 km/h (3 Bft) 99,17 %
22.11.2015 05:00 1,7 C 86 % 999,8 hPa 0,0 l/m 11,4 km/h (2 Bft) SW 224 0 min 0,000 mm 0,0 UV-I 0 W/m -0,4 C -2,6 C 19,3 km/h (3 Bft) 97,39 %
22.11.2015 05:05 1,7 C 86 % 999,8 hPa 0,0 l/m 13,2 km/h (3 Bft) W-SW 237 0 min 0,000 mm 0,0 UV-I 0 W/m -0,4 C -3,8 C 19,3 km/h (3 Bft) 100,00 %
22.11.2015 05:10 1,7 C 86 % 999,8 hPa 0,0 l/m 11,8 km/h (2 Bft) W-SW 256 0 min 0,000 mm 0,0 UV-I 0 W/m -0,4 C -2,9 C 19,3 km/h (3 Bft) 98,31 %
22.11.2015 05:15 1,8 C 85 % 999,9 hPa 0,0 l/m 11,5 km/h (2 Bft) S-SW 211 0 min 0,000 mm 0,0 UV-I 0 W/m -0,4 C -2,6 C 17,7 km/h (3 Bft) 97,80 %
22.11.2015 05:20 1,8 C 85 % 999,9 hPa 0,0 l/m 13,5 km/h (3 Bft) SW 227 0 min 0,000 mm 0,0 UV-I 0 W/m -0,4 C -3,9 C 20,9 km/h (4 Bft) 99,28 %
22.11.2015 05:25 1,8 C 85 % 1000,0 hPa 0,0 l/m 13,0 km/h (3 Bft) SW 224 0 min 0,000 mm 0,0 UV-I 0 W/m -0,4 C -3,6 C 19,3 km/h (3 Bft) 100,00 %
22.11.2015 05:30 1,8 C 85 % 1000,0 hPa 0,0 l/m 11,9 km/h (2 Bft) W-SW 242 0 min 0,000 mm 0,0 UV-I 0 W/m -0,4 C -2,9 C 19,3 km/h (3 Bft) 100,00 %
22.11.2015 05:35 1,8 C 85 % 1000,0 hPa 0,0 l/m 9,9 km/h (2 Bft) W-SW 241 0 min 0,000 mm 0,0 UV-I 0 W/m -0,4 C -1,4 C 17,7 km/h (3 Bft) 99,19 %
22.11.2015 05:40 1,7 C 85 % 1000,0 hPa 0,0 l/m 10,0 km/h (2 Bft) W-SW 253 0 min 0,000 mm 0,0 UV-I 0 W/m -0,5 C -1,6 C 16,1 km/h (3 Bft) 98,17 %
22.11.2015 05:45 1,7 C 85 % 1000,0 hPa 0,0 l/m 12,4 km/h (3 Bft) SW 233 0 min 0,000 mm 0,0 UV-I 0 W/m -0,5 C -3,3 C 20,9 km/h (4 Bft) 100,00 %
22.11.2015 05:50 1,7 C 85 % 1000,1 hPa 0,0 l/m 12,7 km/h (3 Bft) W-SW 252 0 min 0,000 mm 0,0 UV-I 0 W/m -0,5 C -3,5 C 19,3 km/h (3 Bft) 100,00 %
22.11.2015 05:55 1,7 C 85 % 1000,2 hPa 0,0 l/m 11,1 km/h (2 Bft) SW 219 0 min 0,000 mm 0,0 UV-I 0 W/m -0,5 C -2,4 C 17,7 km/h (3 Bft) 98,41 %
22.11.2015 06:00 1,7 C 85 % 1000,3 hPa 0,0 l/m 11,2 km/h (2 Bft) W-SW 243 0 min 0,026 mm 0,0 UV-I 0 W/m -0,5 C -2,5 C 19,3 km/h (3 Bft) 100,00 %
22.11.2015 06:05 1,7 C 85 % 1000,3 hPa 0,0 l/m 12,5 km/h (3 Bft) W-SW 246 0 min 0,000 mm 0,0 UV-I 0 W/m -0,5 C -3,4 C 19,3 km/h (3 Bft) 98,26 %
22.11.2015 06:10 1,7 C 85 % 1000,3 hPa 0,0 l/m 11,3 km/h (2 Bft) S-SW 212 0 min 0,000 mm 0,0 UV-I 0 W/m -0,5 C -2,6 C 17,7 km/h (3 Bft) 96,83 %
22.11.2015 06:15 1,6 C 85 % 1000,4 hPa 0,0 l/m 10,3 km/h (2 Bft) W-SW 238 0 min 0,000 mm 0,0 UV-I 0 W/m -0,6 C -1,9 C 17,7 km/h (3 Bft) 97,32 %
22.11.2015 06:20 1,6 C 85 % 1000,4 hPa 0,0 l/m 9,3 km/h (2 Bft) SW 230 0 min 0,000 mm 0,0 UV-I 0 W/m -0,6 C -1,1 C 16,1 km/h (3 Bft) 95,74 %
22.11.2015 06:30 1,7 C 84 % 1000,5 hPa 0,0 l/m 12,3 km/h (3 Bft) SW 229 0 min 0,000 mm 0,0 UV-I 0 W/m -0,7 C -3,2 C 19,3 km/h (3 Bft) 96,72 %
22.11.2015 06:35 1,7 C 84 % 1000,6 hPa 0,0 l/m 9,5 km/h (2 Bft) W 265 0 min 0,000 mm 0,0 UV-I 0 W/m -0,7 C -1,2 C 14,5 km/h (3 Bft) 97,50 %
22.11.2015 06:40 1,7 C 84 % 1000,6 hPa 0,0 l/m 12,0 km/h (2 Bft) SW 232 0 min 0,000 mm 0,0 UV-I 0 W/m -0,7 C -3,0 C 20,9 km/h (4 Bft) 98,21 %
22.11.2015 06:45 1,7 C 84 % 1000,6 hPa 0,0 l/m 11,4 km/h (2 Bft) W-SW 258 0 min 0,000 mm 0,0 UV-I 0 W/m -0,7 C -2,6 C 17,7 km/h (3 Bft) 97,52 %
22.11.2015 06:50 1,7 C 83 % 1000,6 hPa 0,0 l/m 11,4 km/h (2 Bft) W-NW 286 0 min 0,000 mm 0,0 UV-I 0 W/m -0,9 C -2,6 C 17,7 km/h (3 Bft) 98,33 %
22.11.2015 06:55 1,7 C 83 % 1000,6 hPa 0,0 l/m 10,7 km/h (2 Bft) W-SW 244 0 min 0,000 mm 0,0 UV-I 0 W/m -0,9 C -2,1 C 17,7 km/h (3 Bft) 99,08 %
22.11.2015 07:00 1,7 C 84 % 1000,6 hPa 0,0 l/m 7,9 km/h (2 Bft) W-SW 245 0 min 0,025 mm 0,0 UV-I 0 W/m -0,7 C 0,2 C 12,9 km/h (3 Bft) 99,15 %
22.11.2015 07:05 1,7 C 83 % 1000,6 hPa 0,0 l/m 10,9 km/h (2 Bft) W 263 0 min 0,000 mm 0,0 UV-I 0 W/m -0,9 C -2,3 C 17,7 km/h (3 Bft) 99,19 %
22.11.2015 07:10 1,7 C 83 % 1000,7 hPa 0,0 l/m 11,0 km/h (2 Bft) W 259 0 min 0,000 mm 0,0 UV-I 0 W/m -0,9 C -2,3 C 16,1 km/h (3 Bft) 99,13 %
22.11.2015 07:15 1,7 C 83 % 1000,7 hPa 0,0 l/m 11,5 km/h (2 Bft) W 264 0 min 0,000 mm 0,0 UV-I 0 W/m -0,9 C -2,7 C 17,7 km/h (3 Bft) 99,19 %
22.11.2015 07:20 1,7 C 83 % 1000,8 hPa 0,0 l/m 13,9 km/h (3 Bft) W-SW 253 0 min 0,000 mm 0,0 UV-I 0 W/m -0,9 C -4,3 C 24,1 km/h (4 Bft) 99,06 %
22.11.2015 07:25 1,7 C 83 % 1001,0 hPa 0,0 l/m 11,8 km/h (2 Bft) SW 233 0 min 0,000 mm 0,0 UV-I 0 W/m -0,9 C -2,9 C 16,1 km/h (3 Bft) 99,21 %
22.11.2015 07:30 1,7 C 83 % 1001,0 hPa 0,0 l/m 10,4 km/h (2 Bft) W-SW 245 0 min 0,000 mm 0,0 UV-I 3 W/m -0,9 C -1,9 C 17,7 km/h (3 Bft) 99,15 %
22.11.2015 07:35 1,7 C 83 % 1001,0 hPa 0,0 l/m 9,5 km/h (2 Bft) W-SW 247 0 min 0,000 mm 0,0 UV-I 10 W/m -0,9 C -1,2 C 17,7 km/h (3 Bft) 99,15 %
22.11.2015 07:40 1,7 C 83 % 1001,1 hPa 0,0 l/m 9,1 km/h (2 Bft) W-SW 253 0 min 0,000 mm 0,0 UV-I 13 W/m -0,9 C -0,8 C 16,1 km/h (3 Bft) 99,13 %
22.11.2015 07:45 1,7 C 83 % 1001,2 hPa 0,0 l/m 10,8 km/h (2 Bft) W 269 0 min 0,000 mm 0,0 UV-I 13 W/m -0,9 C -2,2 C 17,7 km/h (3 Bft) 98,33 %
22.11.2015 07:50 1,8 C 83 % 1001,2 hPa 0,0 l/m 9,5 km/h (2 Bft) W 259 0 min 0,000 mm 0,0 UV-I 14 W/m -0,8 C -1,1 C 17,7 km/h (3 Bft) 100,00 %
22.11.2015 07:55 1,8 C 83 % 1001,3 hPa 0,0 l/m 9,5 km/h (2 Bft) W-SW 250 0 min 0,000 mm 0,0 UV-I 20 W/m -0,8 C -1,1 C 17,7 km/h (3 Bft) 100,00 %
22.11.2015 08:00 1,8 C 83 % 1001,3 hPa 0,0 l/m 9,6 km/h (2 Bft) W-SW 248 0 min 0,025 mm 0,0 UV-I 19 W/m -0,8 C -1,1 C 16,1 km/h (3 Bft) 99,17 %
22.11.2015 08:05 1,8 C 83 % 1001,3 hPa 0,0 l/m 11,5 km/h (2 Bft) W-SW 251 0 min 0,000 mm 0,0 UV-I 17 W/m -0,8 C -2,6 C 17,7 km/h (3 Bft) 98,43 %
22.11.2015 08:10 1,8 C 83 % 1001,4 hPa 0,0 l/m 11,4 km/h (2 Bft) W-NW 287 0 min 0,000 mm 0,0 UV-I 21 W/m -0,8 C -2,5 C 17,7 km/h (3 Bft) 99,12 %
22.11.2015 08:15 1,8 C 83 % 1001,4 hPa 0,0 l/m 9,4 km/h (2 Bft) W-SW 244 0 min 0,000 mm 0,0 UV-I 23 W/m -0,8 C -1,0 C 14,5 km/h (3 Bft) 97,00 %
22.11.2015 08:30 1,9 C 84 % 1001,7 hPa 0,0 l/m 7,4 km/h (2 Bft) W 265 0 min 0,000 mm 0,0 UV-I 61 W/m -0,5 C 0,9 C 11,3 km/h (2 Bft) 96,97 %
22.11.2015 08:35 2,0 C 84 % 1001,6 hPa 0,0 l/m 8,2 km/h (2 Bft) SW 221 0 min 0,000 mm 0,0 UV-I 64 W/m -0,4 C 0,3 C 12,9 km/h (3 Bft) 96,75 %
22.11.2015 08:40 2,0 C 83 % 1001,7 hPa 0,0 l/m 9,2 km/h (2 Bft) W-SW 249 0 min 0,000 mm 0,0 UV-I 69 W/m -0,6 C -0,6 C 16,1 km/h (3 Bft) 97,32 %
22.11.2015 08:45 2,1 C 83 % 1001,7 hPa 0,0 l/m 12,0 km/h (2 Bft) W-SW 239 0 min 0,000 mm 0,0 UV-I 71 W/m -0,5 C -2,6 C 19,3 km/h (3 Bft) 98,39 %
22.11.2015 08:50 2,2 C 82 % 1001,7 hPa 0,0 l/m 12,4 km/h (3 Bft) W-SW 258 0 min 0,000 mm 0,0 UV-I 67 W/m -0,5 C -2,7 C 17,7 km/h (3 Bft) 99,07 %
22.11.2015 08:55 2,2 C 81 % 1001,8 hPa 0,0 l/m 10,8 km/h (2 Bft) W 263 0 min 0,000 mm 0,0 UV-I 60 W/m -0,7 C -1,6 C 20,9 km/h (4 Bft) 97,52 %
22.11.2015 09:00 2,2 C 80 % 1002,0 hPa 0,0 l/m 14,3 km/h (3 Bft) W 261 0 min 0,026 mm 0,0 UV-I 63 W/m -0,9 C -3,9 C 24,1 km/h (4 Bft) 98,35 %
22.11.2015 09:05 2,3 C 79 % 1002,0 hPa 0,0 l/m 16,2 km/h (3 Bft) W-SW 245 0 min 0,000 mm 0,0 UV-I 94 W/m -1,0 C -4,8 C 32,2 km/h (5 Bft) 100,00 %
22.11.2015 09:10 2,3 C 78 % 1002,0 hPa 0,0 l/m 18,9 km/h (3 Bft) SW 225 0 min 0,000 mm 0,0 UV-I 110 W/m -1,1 C -6,2 C 30,6 km/h (5 Bft) 100,00 %
22.11.2015 09:15 2,3 C 78 % 1002,0 hPa 0,0 l/m 18,0 km/h (3 Bft) SW 225 0 min 0,000 mm 0,0 UV-I 121 W/m -1,1 C -5,7 C 33,8 km/h (5 Bft) 100,00 %
22.11.2015 09:20 2,4 C 79 % 1002,1 hPa 0,0 l/m 17,7 km/h (3 Bft) W-SW 239 0 min 0,000 mm 0,0 UV-I 128 W/m -0,9 C -5,5 C 29,0 km/h (5 Bft) 100,00 %
22.11.2015 09:25 2,4 C 78 % 1002,2 hPa 0,0 l/m 15,9 km/h (3 Bft) W-SW 246 0 min 0,000 mm 0,0 UV-I 132 W/m -1,0 C -4,6 C 25,7 km/h (4 Bft) 97,64 %
22.11.2015 09:30 2,5 C 78 % 1002,3 hPa 0,0 l/m 16,8 km/h (3 Bft) SW 222 0 min 0,000 mm 0,0 UV-I 144 W/m -0,9 C -4,9 C 29,0 km/h (5 Bft) 99,10 %
22.11.2015 09:35 2,7 C 77 % 1002,3 hPa 0,0 l/m 16,8 km/h (3 Bft) SW 234 5 min 0,000 mm 0,0 UV-I 176 W/m -0,9 C -4,7 C 29,0 km/h (5 Bft) 99,17 %
22.11.2015 09:40 2,7 C 77 % 1002,5 hPa 0,0 l/m 19,2 km/h (3 Bft) SW 222 0 min 0,000 mm 0,0 UV-I 146 W/m -0,9 C -5,8 C 35,4 km/h (5 Bft) 99,08 %
22.11.2015 09:45 2,8 C 78 % 1002,6 hPa 0,0 l/m 16,4 km/h (3 Bft) W 260 0 min 0,000 mm 0,0 UV-I 112 W/m -0,6 C -4,3 C 27,4 km/h (4 Bft) 99,19 %
22.11.2015 09:50 2,8 C 78 % 1002,8 hPa 0,0 l/m 13,9 km/h (3 Bft) W 276 0 min 0,000 mm 0,0 UV-I 63 W/m -0,6 C -3,0 C 19,3 km/h (3 Bft) 98,26 %
22.11.2015 09:55 2,7 C 78 % 1002,9 hPa 0,0 l/m 16,5 km/h (3 Bft) W 259 0 min 0,000 mm 0,0 UV-I 54 W/m -0,7 C -4,5 C 25,7 km/h (4 Bft) 99,11 %
22.11.2015 10:00 2,7 C 78 % 1003,0 hPa 0,0 l/m 17,7 km/h (3 Bft) S-SW 197 0 min 0,076 mm 0,0 UV-I 63 W/m -0,7 C -5,1 C 27,4 km/h (4 Bft) 98,37 %
22.11.2015 10:05 2,7 C 78 % 1003,1 hPa 0,0 l/m 17,0 km/h (3 Bft) SW 234 0 min 0,000 mm 0,0 UV-I 72 W/m -0,7 C -4,8 C 27,4 km/h (4 Bft) 99,17 %
22.11.2015 10:10 2,7 C 78 % 1003,2 hPa 0,0 l/m 18,9 km/h (3 Bft) W-SW 248 0 min 0,000 mm 0,0 UV-I 54 W/m -0,7 C -5,7 C 32,2 km/h (5 Bft) 100,00 %
22.11.2015 10:15 2,7 C 78 % 1003,2 hPa 0,0 l/m 16,7 km/h (3 Bft) SW 232 0 min 0,000 mm 0,0 UV-I 42 W/m -0,7 C -4,6 C 27,4 km/h (4 Bft) 96,92 %
22.11.2015 10:25 2,6 C 80 % 1003,4 hPa 0,0 l/m 13,1 km/h (3 Bft) W 272 0 min 0,000 mm 0,0 UV-I 43 W/m -0,5 C -2,7 C 20,9 km/h (4 Bft) 96,88 %
22.11.2015 10:30 2,5 C 81 % 1003,6 hPa 0,0 l/m 12,7 km/h (3 Bft) W 265 0 min 0,000 mm 0,0 UV-I 40 W/m -0,4 C -2,6 C 20,9 km/h (4 Bft) 96,52 %
22.11.2015 10:35 2,4 C 82 % 1003,7 hPa 0,0 l/m 14,1 km/h (3 Bft) W-SW 257 0 min 0,000 mm 0,0 UV-I 40 W/m -0,4 C -3,6 C 22,5 km/h (4 Bft) 98,26 %
22.11.2015 10:40 2,3 C 83 % 1003,7 hPa 0,0 l/m 18,2 km/h (3 Bft) W-SW 254 0 min 0,000 mm 0,0 UV-I 37 W/m -0,3 C -5,8 C 27,4 km/h (4 Bft) 97,62 %
22.11.2015 10:45 2,2 C 84 % 1003,7 hPa 0,0 l/m 14,7 km/h (3 Bft) W-SW 242 0 min 0,000 mm 0,0 UV-I 41 W/m -0,2 C -4,1 C 27,4 km/h (4 Bft) 97,52 %
22.11.2015 10:50 2,2 C 85 % 1003,8 hPa 0,0 l/m 13,9 km/h (3 Bft) SW 219 0 min 0,000 mm 0,0 UV-I 46 W/m -0,1 C -3,7 C 20,9 km/h (4 Bft) 100,00 %
22.11.2015 10:55 2,2 C 86 % 1003,7 hPa 0,0 l/m 16,3 km/h (3 Bft) SW 225 0 min 0,000 mm 0,0 UV-I 57 W/m 0,1 C -5,0 C 25,7 km/h (4 Bft) 99,21 %
22.11.2015 11:00 2,1 C 86 % 1003,7 hPa 0,0 l/m 15,7 km/h (3 Bft) W 262 0 min 0,051 mm 0,0 UV-I 69 W/m 0,0 C -4,8 C 27,4 km/h (4 Bft) 100,00 %
22.11.2015 11:05 2,1 C 87 % 1003,7 hPa 0,0 l/m 18,2 km/h (3 Bft) W 275 0 min 0,000 mm 0,0 UV-I 76 W/m 0,2 C -6,1 C 25,7 km/h (4 Bft) 98,10 %
22.11.2015 11:10 2,0 C 88 % 1003,7 hPa 0,0 l/m 17,5 km/h (3 Bft) W 274 0 min 0,000 mm 0,0 UV-I 82 W/m 0,2 C -5,9 C 25,7 km/h (4 Bft) 100,00 %
22.11.2015 11:15 2,0 C 89 % 1003,6 hPa 0,0 l/m 13,5 km/h (3 Bft) W-NW 287 0 min 0,000 mm 0,0 UV-I 89 W/m 0,4 C -3,7 C 24,1 km/h (4 Bft) 100,00 %
22.11.2015 11:20 1,9 C 89 % 1003,7 hPa 0,0 l/m 15,8 km/h (3 Bft) SW 232 0 min 0,000 mm 0,0 UV-I 95 W/m 0,3 C -5,1 C 24,1 km/h (4 Bft) 100,00 %
22.11.2015 11:25 1,9 C 90 % 1003,8 hPa 0,0 l/m 12,5 km/h (3 Bft) SW 228 0 min 0,000 mm 0,0 UV-I 97 W/m 0,4 C -3,1 C 22,5 km/h (4 Bft) 99,17 %
22.11.2015 11:30 1,8 C 91 % 1003,9 hPa 0,0 l/m 15,4 km/h (3 Bft) SW 227 0 min 0,000 mm 0,0 UV-I 93 W/m 0,5 C -5,0 C 25,7 km/h (4 Bft) 100,00 %
22.11.2015 11:35 1,7 C 91 % 1003,9 hPa 0,0 l/m 17,8 km/h (3 Bft) W 271 0 min 0,000 mm 0,0 UV-I 89 W/m 0,4 C -6,4 C 29,0 km/h (5 Bft) 100,00 %
22.11.2015 11:40 1,6 C 92 % 1003,9 hPa 0,0 l/m 16,3 km/h (3 Bft) W-SW 257 0 min 0,000 mm 0,0 UV-I 84 W/m 0,4 C -5,8 C 24,1 km/h (4 Bft) 98,35 %
22.11.2015 11:45 1,5 C 93 % 1004,0 hPa 0,0 l/m 16,5 km/h (3 Bft) W-SW 238 0 min 0,000 mm 0,0 UV-I 79 W/m 0,5 C -6,0 C 25,7 km/h (4 Bft) 100,00 %
22.11.2015 11:50 1,4 C 93 % 1004,0 hPa 0,2 l/m 14,8 km/h (3 Bft) W 260 0 min 0,000 mm 0,0 UV-I 75 W/m 0,4 C -5,2 C 24,1 km/h (4 Bft) 99,06 %
22.11.2015 11:55 1,4 C 94 % 1004,2 hPa 0,0 l/m 13,4 km/h (3 Bft) W-SW 243 0 min 0,000 mm 0,0 UV-I 74 W/m 0,5 C -4,3 C 22,5 km/h (4 Bft) 96,85 %
22.11.2015 12:00 1,4 C 94 % 1004,2 hPa 0,0 l/m 14,6 km/h (3 Bft) W-SW 254 0 min 0,051 mm 0,0 UV-I 73 W/m 0,5 C -5,1 C 22,5 km/h (4 Bft) 100,00 %
22.11.2015 12:05 1,4 C 94 % 1004,3 hPa 0,0 l/m 14,7 km/h (3 Bft) W-SW 248 0 min 0,000 mm 0,0 UV-I 76 W/m 0,5 C -5,1 C 22,5 km/h (4 Bft) 99,08 %
22.11.2015 12:10 1,4 C 94 % 1004,4 hPa 0,0 l/m 13,7 km/h (3 Bft) W 260 0 min 0,000 mm 0,0 UV-I 75 W/m 0,5 C -4,5 C 20,9 km/h (4 Bft) 99,17 %
22.11.2015 12:15 1,4 C 94 % 1004,4 hPa 0,2 l/m 15,8 km/h (3 Bft) W-SW 256 0 min 0,000 mm 0,0 UV-I 77 W/m 0,5 C -5,7 C 29,0 km/h (5 Bft) 97,46 %
22.11.2015 12:20 1,4 C 94 % 1004,5 hPa 0,0 l/m 14,8 km/h (3 Bft) W-SW 248 0 min 0,000 mm 0,0 UV-I 76 W/m 0,5 C -5,2 C 25,7 km/h (4 Bft) 95,65 %
22.11.2015 12:25 1,4 C 94 % 1004,6 hPa 0,0 l/m 12,7 km/h (3 Bft) W 276 0 min 0,000 mm 0,0 UV-I 77 W/m 0,5 C -3,9 C 27,4 km/h (4 Bft) 96,75 %
22.11.2015 12:30 1,4 C 94 % 1004,6 hPa 0,0 l/m 13,1 km/h (3 Bft) W 261 0 min 0,000 mm 0,0 UV-I 74 W/m 0,5 C -4,1 C 24,1 km/h (4 Bft) 96,33 %
22.11.2015 12:35 1,3 C 94 % 1004,7 hPa 0,0 l/m 16,1 km/h (3 Bft) W-SW 251 0 min 0,000 mm 0,0 UV-I 69 W/m 0,4 C -6,0 C 22,5 km/h (4 Bft) 96,83 %
22.11.2015 12:40 1,3 C 94 % 1004,7 hPa 0,0 l/m 13,8 km/h (3 Bft) SW 227 0 min 0,000 mm 0,0 UV-I 64 W/m 0,4 C -4,7 C 22,5 km/h (4 Bft) 98,17 %
22.11.2015 12:45 1,3 C 95 % 1004,8 hPa 0,0 l/m 11,7 km/h (2 Bft) W 266 0 min 0,000 mm 0,0 UV-I 66 W/m 0,6 C -3,3 C 17,7 km/h (3 Bft) 96,69 %
22.11.2015 12:50 1,4 C 94 % 1004,9 hPa 0,0 l/m 12,1 km/h (2 Bft) W-SW 245 0 min 0,000 mm 0,0 UV-I 74 W/m 0,5 C -3,5 C 20,9 km/h (4 Bft) 98,29 %
22.11.2015 12:55 1,5 C 94 % 1004,9 hPa 0,2 l/m 13,2 km/h (3 Bft) SW 236 0 min 0,000 mm 0,0 UV-I 83 W/m 0,6 C -4,1 C 24,1 km/h (4 Bft) 100,00 %
22.11.2015 13:00 1,6 C 94 % 1004,9 hPa 0,0 l/m 12,4 km/h (3 Bft) W-SW 243 0 min 0,025 mm 0,0 UV-I 90 W/m 0,7 C -3,4 C 19,3 km/h (3 Bft) 100,00 %
22.11.2015 13:05 1,6 C 94 % 1005,0 hPa 0,0 l/m 12,2 km/h (2 Bft) W-SW 239 0 min 0,000 mm 0,0 UV-I 85 W/m 0,7 C -3,3 C 24,1 km/h (4 Bft) 100,00 %
22.11.2015 13:10 1,7 C 94 % 1005,0 hPa 0,0 l/m 11,0 km/h (2 Bft) W-SW 242 0 min 0,000 mm 0,0 UV-I 80 W/m 0,8 C -2,3 C 19,3 km/h (3 Bft) 99,11 %
22.11.2015 13:15 1,7 C 94 % 1005,0 hPa 0,0 l/m 13,6 km/h (3 Bft) W-SW 242 0 min 0,000 mm 0,0 UV-I 68 W/m 0,8 C -4,1 C 27,4 km/h (4 Bft) 100,00 %
22.11.2015 13:20 1,7 C 94 % 1005,1 hPa 0,0 l/m 12,4 km/h (3 Bft) SW 236 0 min 0,000 mm 0,0 UV-I 81 W/m 0,8 C -3,3 C 19,3 km/h (3 Bft) 99,11 %
22.11.2015 13:25 1,7 C 94 % 1005,2 hPa 0,0 l/m 12,4 km/h (3 Bft) W 266 0 min 0,000 mm 0,0 UV-I 85 W/m 0,8 C -3,3 C 22,5 km/h (4 Bft) 100,00 %
22.11.2015 13:30 1,8 C 94 % 1005,4 hPa 0,0 l/m 9,8 km/h (2 Bft) W 263 0 min 0,000 mm 0,0 UV-I 77 W/m 0,9 C -1,3 C 22,5 km/h (4 Bft) 100,00 %
22.11.2015 13:35 1,8 C 93 % 1005,4 hPa 0,0 l/m 11,3 km/h (2 Bft) W-SW 250 0 min 0,000 mm 0,0 UV-I 74 W/m 0,8 C -2,4 C 24,1 km/h (4 Bft) 98,37 %
22.11.2015 13:40 1,8 C 92 % 1005,4 hPa 0,0 l/m 17,8 km/h (3 Bft) S-SW 213 0 min 0,000 mm 0,0 UV-I 82 W/m 0,6 C -6,3 C 29,0 km/h (5 Bft) 98,21 %
22.11.2015 13:45 1,8 C 91 % 1005,4 hPa 0,0 l/m 16,7 km/h (3 Bft) W 261 0 min 0,000 mm 0,0 UV-I 92 W/m 0,5 C -5,7 C 30,6 km/h (5 Bft) 99,19 %
22.11.2015 13:50 1,8 C 91 % 1005,5 hPa 0,0 l/m 13,4 km/h (3 Bft) W-SW 253 0 min 0,000 mm 0,0 UV-I 93 W/m 0,5 C -3,8 C 25,7 km/h (4 Bft) 100,00 %
22.11.2015 13:55 1,8 C 91 % 1005,6 hPa 0,0 l/m 15,8 km/h (3 Bft) W 272 0 min 0,000 mm 0,0 UV-I 86 W/m 0,5 C -5,2 C 24,1 km/h (4 Bft) 99,15 %
22.11.2015 14:00 1,9 C 91 % 1005,6 hPa 0,0 l/m 11,3 km/h (2 Bft) W 269 0 min 0,025 mm 0,0 UV-I 81 W/m 0,6 C -2,3 C 19,3 km/h (3 Bft) 98,31 %
22.11.2015 14:05 1,9 C 91 % 1005,6 hPa 0,0 l/m 13,9 km/h (3 Bft) SW 223 0 min 0,000 mm 0,0 UV-I 90 W/m 0,6 C -4,0 C 20,9 km/h (4 Bft) 99,11 %
22.11.2015 14:10 2,0 C 91 % 1005,7 hPa 0,0 l/m 15,3 km/h (3 Bft) W 281 0 min 0,000 mm 0,0 UV-I 84 W/m 0,7 C -4,7 C 25,7 km/h (4 Bft) 100,00 %
22.11.2015 14:15 2,1 C 90 % 1005,8 hPa 0,0 l/m 10,1 km/h (2 Bft) W 261 0 min 0,000 mm 0,0 UV-I 91 W/m 0,6 C -1,2 C 14,5 km/h (3 Bft) 97,94 %
22.11.2015 14:20 2,1 C 91 % 1005,8 hPa 0,0 l/m 12,4 km/h (3 Bft) W-SW 248 0 min 0,000 mm 0,0 UV-I 109 W/m 0,8 C -2,9 C 25,7 km/h (4 Bft) 96,40 %
22.11.2015 14:25 2,2 C 91 % 1005,9 hPa 0,0 l/m 13,6 km/h (3 Bft) W 272 0 min 0,000 mm 0,0 UV-I 99 W/m 0,9 C -3,5 C 24,1 km/h (4 Bft) 97,22 %
22.11.2015 14:30 2,2 C 90 % 1006,0 hPa 0,0 l/m 12,0 km/h (2 Bft) W-SW 248 0 min 0,000 mm 0,0 UV-I 69 W/m 0,7 C -2,5 C 25,7 km/h (4 Bft) 95,97 %
22.11.2015 14:35 2,1 C 89 % 1006,2 hPa 0,0 l/m 15,8 km/h (3 Bft) W 279 0 min 0,000 mm 0,0 UV-I 50 W/m 0,5 C -4,9 C 25,7 km/h (4 Bft) 96,67 %
22.11.2015 14:40 2,1 C 90 % 1006,2 hPa 0,0 l/m 14,8 km/h (3 Bft) W-SW 248 0 min 0,000 mm 0,0 UV-I 47 W/m 0,6 C -4,3 C 20,9 km/h (4 Bft) 97,39 %
22.11.2015 14:45 2,1 C 89 % 1006,3 hPa 0,0 l/m 15,3 km/h (3 Bft) W-SW 247 0 min 0,000 mm 0,0 UV-I 52 W/m 0,5 C -4,6 C 24,1 km/h (4 Bft) 95,28 %
22.11.2015 14:50 2,1 C 89 % 1006,3 hPa 0,0 l/m 15,3 km/h (3 Bft) W 259 0 min 0,000 mm 0,0 UV-I 60 W/m 0,5 C -4,6 C 24,1 km/h (4 Bft) 99,19 %
22.11.2015 14:55 2,1 C 89 % 1006,4 hPa 0,0 l/m 15,0 km/h (3 Bft) W 259 0 min 0,000 mm 0,0 UV-I 57 W/m 0,5 C -4,4 C 24,1 km/h (4 Bft) 97,58 %
22.11.2015 15:00 2,1 C 89 % 1006,4 hPa 0,0 l/m 13,2 km/h (3 Bft) W 259 0 min 0,026 mm 0,0 UV-I 52 W/m 0,5 C -3,4 C 22,5 km/h (4 Bft) 100,00 %
22.11.2015 15:05 2,1 C 89 % 1006,4 hPa 0,0 l/m 11,7 km/h (2 Bft) W-SW 237 0 min 0,000 mm 0,0 UV-I 48 W/m 0,5 C -2,4 C 19,3 km/h (3 Bft) 98,33 %
22.11.2015 15:10 2,2 C 89 % 1006,5 hPa 0,0 l/m 13,1 km/h (3 Bft) W-SW 254 0 min 0,000 mm 0,0 UV-I 44 W/m 0,6 C -3,2 C 19,3 km/h (3 Bft) 99,11 %
22.11.2015 15:15 2,2 C 89 % 1006,6 hPa 0,0 l/m 13,1 km/h (3 Bft) W-SW 238 0 min 0,000 mm 0,0 UV-I 40 W/m 0,6 C -3,2 C 20,9 km/h (4 Bft) 100,00 %
22.11.2015 15:20 2,2 C 88 % 1006,6 hPa 0,0 l/m 16,5 km/h (3 Bft) W-SW 252 0 min 0,000 mm 0,0 UV-I 32 W/m 0,4 C -5,1 C 27,4 km/h (4 Bft) 99,15 %
22.11.2015 15:25 2,2 C 88 % 1006,7 hPa 0,0 l/m 12,6 km/h (3 Bft) W-SW 248 0 min 0,000 mm 0,0 UV-I 41 W/m 0,4 C -2,9 C 20,9 km/h (4 Bft) 100,00 %
22.11.2015 15:30 2,2 C 89 % 1006,9 hPa 0,0 l/m 9,9 km/h (2 Bft) W-SW 240 0 min 0,000 mm 0,0 UV-I 26 W/m 0,6 C -0,9 C 14,5 km/h (3 Bft) 99,13 %
22.11.2015 15:35 2,2 C 88 % 1007,0 hPa 0,0 l/m 13,2 km/h (3 Bft) W-SW 256 0 min 0,000 mm 0,0 UV-I 17 W/m 0,4 C -3,2 C 24,1 km/h (4 Bft) 99,17 %
22.11.2015 15:40 2,2 C 89 % 1007,1 hPa 0,0 l/m 12,0 km/h (2 Bft) W 262 0 min 0,000 mm 0,0 UV-I 25 W/m 0,6 C -2,5 C 19,3 km/h (3 Bft) 99,13 %
22.11.2015 15:45 2,2 C 88 % 1007,1 hPa 0,0 l/m 14,2 km/h (3 Bft) W 265 0 min 0,000 mm 0,0 UV-I 18 W/m 0,4 C -3,9 C 27,4 km/h (4 Bft) 99,21 %
22.11.2015 15:50 2,2 C 89 % 1007,2 hPa 0,0 l/m 11,0 km/h (2 Bft) W-SW 256 0 min 0,000 mm 0,0 UV-I 17 W/m 0,6 C -1,8 C 19,3 km/h (3 Bft) 99,11 %
22.11.2015 15:55 2,2 C 90 % 1007,2 hPa 0,0 l/m 7,0 km/h (2 Bft) W-SW 244 0 min 0,000 mm 0,0 UV-I 13 W/m 0,7 C 1,6 C 14,5 km/h (3 Bft) 98,35 %
22.11.2015 16:00 2,1 C 90 % 1007,3 hPa 0,0 l/m 11,4 km/h (2 Bft) W-SW 241 0 min 0,025 mm 0,0 UV-I 11 W/m 0,6 C -2,2 C 22,5 km/h (4 Bft) 99,12 %
22.11.2015 16:05 2,0 C 91 % 1007,2 hPa 0,0 l/m 11,8 km/h (2 Bft) W 260 0 min 0,000 mm 0,0 UV-I 9 W/m 0,7 C -2,6 C 19,3 km/h (3 Bft) 99,15 %
22.11.2015 16:10 1,9 C 91 % 1007,3 hPa 0,0 l/m 12,8 km/h (3 Bft) W-SW 248 0 min 0,000 mm 0,0 UV-I 7 W/m 0,6 C -3,3 C 24,1 km/h (4 Bft) 98,17 %
22.11.2015 16:15 1,8 C 91 % 1007,4 hPa 0,0 l/m 13,8 km/h (3 Bft) W-SW 244 0 min 0,000 mm 0,0 UV-I 6 W/m 0,5 C -4,1 C 24,1 km/h (4 Bft) 99,19 %
22.11.2015 16:20 1,8 C 91 % 1007,5 hPa 0,0 l/m 12,5 km/h (3 Bft) W-SW 255 0 min 0,000 mm 0,0 UV-I 0 W/m 0,5 C -3,3 C 19,3 km/h (3 Bft) 97,00 %
22.11.2015 16:35 1,8 C 92 % 1007,7 hPa 0,0 l/m 14,8 km/h (3 Bft) SW 222 0 min 0,000 mm 0,0 UV-I 0 W/m 0,6 C -4,7 C 24,1 km/h (4 Bft) 96,69 %
22.11.2015 16:40 1,8 C 92 % 1007,9 hPa 0,0 l/m 15,3 km/h (3 Bft) W 277 0 min 0,000 mm 0,0 UV-I 0 W/m 0,6 C -5,0 C 25,7 km/h (4 Bft) 96,58 %
22.11.2015 16:45 1,7 C 91 % 1008,0 hPa 0,0 l/m 15,0 km/h (3 Bft) W-SW 247 0 min 0,000 mm 0,0 UV-I 0 W/m 0,4 C -4,9 C 22,5 km/h (4 Bft) 97,52 %
22.11.2015 16:50 1,7 C 91 % 1008,1 hPa 0,0 l/m 14,9 km/h (3 Bft) W 265 0 min 0,000 mm 0,0 UV-I 0 W/m 0,4 C -4,9 C 25,7 km/h (4 Bft) 97,56 %
22.11.2015 16:55 1,7 C 90 % 1008,1 hPa 0,0 l/m 11,6 km/h (2 Bft) W 264 0 min 0,000 mm 0,0 UV-I 0 W/m 0,2 C -2,8 C 24,1 km/h (4 Bft) 99,08 %
22.11.2015 17:00 1,7 C 91 % 1008,2 hPa 0,0 l/m 8,4 km/h (2 Bft) W-SW 250 0 min 0,000 mm 0,0 UV-I 0 W/m 0,4 C -0,2 C 19,3 km/h (3 Bft) 99,21 %
22.11.2015 17:05 1,7 C 90 % 1008,3 hPa 0,0 l/m 10,2 km/h (2 Bft) W-SW 250 0 min 0,000 mm 0,0 UV-I 0 W/m 0,2 C -1,7 C 16,1 km/h (3 Bft) 97,22 %
22.11.2015 17:10 1,7 C 90 % 1008,3 hPa 0,0 l/m 12,0 km/h (2 Bft) W-SW 241 0 min 0,000 mm 0,0 UV-I 0 W/m 0,2 C -3,0 C 22,5 km/h (4 Bft) 100,00 %
22.11.2015 17:15 1,6 C 90 % 1008,4 hPa 0,0 l/m 10,9 km/h (2 Bft) W-SW 237 0 min 0,000 mm 0,0 UV-I 0 W/m 0,1 C -2,4 C 20,9 km/h (4 Bft) 99,21 %
22.11.2015 17:20 1,4 C 89 % 1008,6 hPa 0,0 l/m 13,1 km/h (3 Bft) W-SW 245 0 min 0,000 mm 0,0 UV-I 0 W/m -0,2 C -4,1 C 20,9 km/h (4 Bft) 96,40 %
22.11.2015 17:25 1,4 C 89 % 1008,7 hPa 0,0 l/m 12,0 km/h (2 Bft) W-SW 252 0 min 0,000 mm 0,0 UV-I 0 W/m -0,2 C -3,4 C 20,9 km/h (4 Bft) 99,19 %
22.11.2015 17:30 1,3 C 90 % 1008,8 hPa 0,0 l/m 9,0 km/h (2 Bft) W-SW 246 0 min 0,000 mm 0,0 UV-I 0 W/m -0,2 C -1,2 C 16,1 km/h (3 Bft) 98,33 %
22.11.2015 17:35 1,3 C 90 % 1009,0 hPa 0,0 l/m 5,7 km/h (1 Bft) W-SW 244 0 min 0,000 mm 0,0 UV-I 0 W/m -0,2 C 1,3 C 11,3 km/h (2 Bft) 100,00 %
22.11.2015 17:50 1,0 C 89 % 1009,2 hPa 0,0 l/m 6,5 km/h (2 Bft) W 281 0 min 0,000 mm 0,0 UV-I 0 W/m -0,6 C 0,9 C 11,3 km/h (2 Bft) 99,72 %
22.11.2015 17:55 0,9 C 90 % 1009,3 hPa 0,0 l/m 4,6 km/h (1 Bft) W 273 0 min 0,000 mm 0,0 UV-I 0 W/m -0,6 C 0,9 C 9,7 km/h (2 Bft) 99,15 %
22.11.2015 18:00 0,8 C 90 % 1009,3 hPa 0,0 l/m 5,1 km/h (1 Bft) W 273 0 min 0,000 mm 0,0 UV-I 0 W/m -0,6 C 0,8 C 11,3 km/h (2 Bft) 100,00 %
22.11.2015 18:15 0,8 C 89 % 1009,7 hPa 0,0 l/m 11,0 km/h (2 Bft) W-NW 298 0 min 0,000 mm 0,0 UV-I 0 W/m -0,8 C -3,3 C 16,1 km/h (3 Bft) 99,15 %
22.11.2015 18:20 0,8 C 89 % 1009,8 hPa 0,0 l/m 9,2 km/h (2 Bft) W 269 0 min 0,000 mm 0,0 UV-I 0 W/m -0,8 C -1,9 C 17,7 km/h (3 Bft) 98,35 %
22.11.2015 18:25 0,8 C 89 % 1009,9 hPa 0,0 l/m 9,7 km/h (2 Bft) W-SW 255 0 min 0,000 mm 0,0 UV-I 0 W/m -0,8 C -2,3 C 17,7 km/h (3 Bft) 97,44 %
22.11.2015 18:30 0,8 C 89 % 1010,0 hPa 0,0 l/m 10,1 km/h (2 Bft) W 262 0 min 0,000 mm 0,0 UV-I 0 W/m -0,8 C -2,6 C 16,1 km/h (3 Bft) 97,25 %
22.11.2015 18:35 0,8 C 89 % 1010,2 hPa 0,0 l/m 12,1 km/h (2 Bft) W-SW 252 0 min 0,000 mm 0,0 UV-I 0 W/m -0,8 C -4,2 C 17,7 km/h (3 Bft) 96,77 %
22.11.2015 18:40 0,8 C 89 % 1010,2 hPa 0,0 l/m 10,6 km/h (2 Bft) W-SW 258 0 min 0,000 mm 0,0 UV-I 0 W/m -0,8 C -3,0 C 17,7 km/h (3 Bft) 97,44 %
22.11.2015 18:45 0,8 C 88 % 1010,4 hPa 0,0 l/m 12,7 km/h (3 Bft) W 267 0 min 0,000 mm 0,0 UV-I 0 W/m -1,0 C -4,6 C 20,9 km/h (4 Bft) 96,69 %
22.11.2015 18:50 0,8 C 88 % 1010,5 hPa 0,0 l/m 11,4 km/h (2 Bft) W 265 0 min 0,000 mm 0,0 UV-I 0 W/m -1,0 C -3,6 C 20,9 km/h (4 Bft) 96,49 %
22.11.2015 18:55 0,8 C 88 % 1010,5 hPa 0,0 l/m 10,9 km/h (2 Bft) W-SW 241 0 min 0,000 mm 0,0 UV-I 0 W/m -1,0 C -3,3 C 17,7 km/h (3 Bft) 100,00 %
22.11.2015 19:00 0,8 C 88 % 1010,6 hPa 0,0 l/m 10,0 km/h (2 Bft) W-SW 257 0 min 0,000 mm 0,0 UV-I 0 W/m -1,0 C -2,6 C 17,7 km/h (3 Bft) 98,26 %
22.11.2015 19:05 0,8 C 87 % 1010,8 hPa 0,0 l/m 10,8 km/h (2 Bft) W-SW 251 0 min 0,000 mm 0,0 UV-I 0 W/m -1,1 C -3,2 C 20,9 km/h (4 Bft) 99,10 %
22.11.2015 19:10 0,8 C 87 % 1010,8 hPa 0,0 l/m 10,1 km/h (2 Bft) W-SW 252 0 min 0,000 mm 0,0 UV-I 0 W/m -1,1 C -2,6 C 19,3 km/h (3 Bft) 99,15 %
22.11.2015 19:15 0,8 C 87 % 1011,0 hPa 0,0 l/m 10,8 km/h (2 Bft) SW 217 0 min 0,000 mm 0,0 UV-I 0 W/m -1,1 C -3,2 C 17,7 km/h (3 Bft) 99,21 %
22.11.2015 19:20 0,8 C 87 % 1010,9 hPa 0,0 l/m 12,0 km/h (2 Bft) SW 232 0 min 0,000 mm 0,0 UV-I 0 W/m -1,1 C -4,1 C 19,3 km/h (3 Bft) 99,15 %
22.11.2015 19:25 0,8 C 87 % 1011,0 hPa 0,0 l/m 13,3 km/h (3 Bft) W 262 0 min 0,000 mm 0,0 UV-I 0 W/m -1,1 C -5,0 C 19,3 km/h (3 Bft) 99,08 %
22.11.2015 19:30 0,7 C 86 % 1011,1 hPa 0,0 l/m 11,3 km/h (2 Bft) W-SW 254 0 min 0,000 mm 0,0 UV-I 0 W/m -1,4 C -3,7 C 17,7 km/h (3 Bft) 96,33 %
22.11.2015 19:35 0,7 C 87 % 1011,2 hPa 0,0 l/m 9,6 km/h (2 Bft) SW 219 0 min 0,000 mm 0,0 UV-I 0 W/m -1,2 C -2,3 C 14,5 km/h (3 Bft) 100,00 %
22.11.2015 19:40 0,8 C 86 % 1011,3 hPa 0,0 l/m 10,7 km/h (2 Bft) W-SW 238 0 min 0,000 mm 0,0 UV-I 0 W/m -1,3 C -3,1 C 17,7 km/h (3 Bft) 99,11 %
22.11.2015 19:45 0,8 C 85 % 1011,4 hPa 0,0 l/m 9,5 km/h (2 Bft) SW 236 0 min 0,000 mm 0,0 UV-I 0 W/m -1,4 C -2,2 C 16,1 km/h (3 Bft) 100,00 %
22.11.2015 19:50 0,8 C 86 % 1011,4 hPa 0,0 l/m 8,8 km/h (2 Bft) SW 217 0 min 0,000 mm 0,0 UV-I 0 W/m -1,3 C -1,5 C 16,1 km/h (3 Bft) 99,15 %
22.11.2015 19:55 0,9 C 86 % 1011,4 hPa 0,0 l/m 8,7 km/h (2 Bft) SW 225 0 min 0,000 mm 0,0 UV-I 0 W/m -1,2 C -1,3 C 16,1 km/h (3 Bft) 99,06 %
22.11.2015 20:00 0,9 C 85 % 1011,6 hPa 0,0 l/m 9,5 km/h (2 Bft) SW 214 0 min 0,000 mm 0,0 UV-I 0 W/m -1,3 C -2,0 C 17,7 km/h (3 Bft) 100,00 %
22.11.2015 20:05 0,9 C 86 % 1011,6 hPa 0,0 l/m 10,1 km/h (2 Bft) S-SO 161 0 min 0,000 mm 0,0 UV-I 0 W/m -1,2 C -2,5 C 20,9 km/h (4 Bft) 100,00 %
22.11.2015 20:10 0,9 C 87 % 1011,7 hPa 0,0 l/m 11,6 km/h (2 Bft) SW 225 0 min 0,000 mm 0,0 UV-I 0 W/m -1,0 C -3,7 C 17,7 km/h (3 Bft) 100,00 %
22.11.2015 20:15 0,9 C 87 % 1011,8 hPa 0,0 l/m 13,2 km/h (3 Bft) S-SW 211 0 min 0,000 mm 0,0 UV-I 0 W/m -1,0 C -4,8 C 25,7 km/h (4 Bft) 98,29 %
22.11.2015 20:20 0,9 C 88 % 1011,9 hPa 0,0 l/m 13,1 km/h (3 Bft) SW 224 0 min 0,000 mm 0,0 UV-I 0 W/m -0,9 C -4,7 C 20,9 km/h (4 Bft) 99,15 %
22.11.2015 20:25 0,9 C 88 % 1011,9 hPa 0,0 l/m 16,3 km/h (3 Bft) W-SW 238 0 min 0,000 mm 0,0 UV-I 0 W/m -0,9 C -6,6 C 25,7 km/h (4 Bft) 99,13 %
22.11.2015 20:30 0,9 C 89 % 1012,0 hPa 0,0 l/m 14,6 km/h (3 Bft) S-SW 211 0 min 0,000 mm 0,0 UV-I 0 W/m -0,7 C -5,7 C 24,1 km/h (4 Bft) 96,83 %
22.11.2015 20:35 0,9 C 88 % 1012,2 hPa 0,0 l/m 17,1 km/h (3 Bft) SW 227 0 min 0,000 mm 0,0 UV-I 0 W/m -0,9 C -7,1 C 27,4 km/h (4 Bft) 97,46 %
22.11.2015 20:40 0,9 C 88 % 1012,1 hPa 0,0 l/m 15,5 km/h (3 Bft) S-SW 194 0 min 0,000 mm 0,0 UV-I 0 W/m -0,9 C -6,2 C 27,4 km/h (4 Bft) 95,73 %
22.11.2015 20:45 0,9 C 88 % 1012,3 hPa 0,0 l/m 14,7 km/h (3 Bft) W-SW 242 0 min 0,000 mm 0,0 UV-I 0 W/m -0,9 C -5,7 C 22,5 km/h (4 Bft) 97,32 %
22.11.2015 20:50 0,9 C 88 % 1012,3 hPa 0,0 l/m 11,9 km/h (2 Bft) SW 221 0 min 0,000 mm 0,0 UV-I 0 W/m -0,9 C -3,9 C 20,9 km/h (4 Bft) 97,17 %
22.11.2015 20:55 0,9 C 88 % 1012,5 hPa 0,0 l/m 14,7 km/h (3 Bft) S 181 0 min 0,000 mm 0,0 UV-I 0 W/m -0,9 C -5,7 C 24,1 km/h (4 Bft) 97,56 %
22.11.2015 21:00 1,0 C 87 % 1012,6 hPa 0,0 l/m 11,4 km/h (2 Bft) S-SW 212 0 min 0,026 mm 0,0 UV-I 0 W/m -0,9 C -3,4 C 20,9 km/h (4 Bft) 97,58 %
22.11.2015 21:05 1,1 C 87 % 1012,6 hPa 0,0 l/m 11,4 km/h (2 Bft) SW 227 0 min 0,000 mm 0,0 UV-I 0 W/m -0,8 C -3,3 C 17,7 km/h (3 Bft) 99,17 %
22.11.2015 21:10 1,1 C 86 % 1012,7 hPa 0,0 l/m 11,5 km/h (2 Bft) S-SW 198 0 min 0,000 mm 0,0 UV-I 0 W/m -1,0 C -3,4 C 22,5 km/h (4 Bft) 100,00 %
22.11.2015 21:15 1,2 C 85 % 1012,7 hPa 0,0 l/m 11,6 km/h (2 Bft) S-SW 194 0 min 0,000 mm 0,0 UV-I 0 W/m -1,0 C -3,3 C 22,5 km/h (4 Bft) 99,19 %
22.11.2015 21:20 1,2 C 84 % 1012,7 hPa 0,0 l/m 10,4 km/h (2 Bft) SW 232 0 min 0,000 mm 0,0 UV-I 0 W/m -1,2 C -2,4 C 20,9 km/h (4 Bft) 98,25 %
22.11.2015 21:25 1,2 C 84 % 1012,6 hPa 0,0 l/m 10,7 km/h (2 Bft) SW 219 0 min 0,000 mm 0,0 UV-I 0 W/m -1,2 C -2,7 C 19,3 km/h (3 Bft) 99,17 %
22.11.2015 21:30 1,2 C 84 % 1012,6 hPa 0,0 l/m 10,9 km/h (2 Bft) W-SW 246 0 min 0,000 mm 0,0 UV-I 0 W/m -1,2 C -2,8 C 17,7 km/h (3 Bft) 100,00 %
22.11.2015 21:35 1,2 C 84 % 1012,7 hPa 0,0 l/m 9,7 km/h (2 Bft) SW 234 0 min 0,000 mm 0,0 UV-I 0 W/m -1,2 C -1,9 C 16,1 km/h (3 Bft) 99,15 %
22.11.2015 21:40 1,2 C 84 % 1012,7 hPa 0,0 l/m 11,1 km/h (2 Bft) S-SW 212 0 min 0,000 mm 0,0 UV-I 0 W/m -1,2 C -3,0 C 17,7 km/h (3 Bft) 100,00 %
22.11.2015 21:45 1,2 C 84 % 1012,7 hPa 0,0 l/m 10,7 km/h (2 Bft) W-SW 248 0 min 0,000 mm 0,0 UV-I 0 W/m -1,2 C -2,7 C 17,7 km/h (3 Bft) 100,00 %
22.11.2015 21:50 1,1 C 84 % 1012,7 hPa 0,0 l/m 10,5 km/h (2 Bft) SW 218 0 min 0,000 mm 0,0 UV-I 0 W/m -1,3 C -2,6 C 16,1 km/h (3 Bft) 100,00 %
22.11.2015 21:55 1,1 C 85 % 1012,7 hPa 0,0 l/m 9,4 km/h (2 Bft) SW 223 0 min 0,000 mm 0,0 UV-I 0 W/m -1,1 C -1,7 C 11,3 km/h (2 Bft) 100,00 %
22.11.2015 22:00 0,9 C 85 % 1012,9 hPa 0,0 l/m 9,4 km/h (2 Bft) W-SW 238 0 min 0,025 mm 0,0 UV-I 0 W/m -1,3 C -2,0 C 14,5 km/h (3 Bft) 100,00 %
22.11.2015 22:05 0,9 C 85 % 1012,9 hPa 0,0 l/m 8,1 km/h (2 Bft) W-SW 247 0 min 0,000 mm 0,0 UV-I 0 W/m -1,3 C -0,8 C 14,5 km/h (3 Bft) 100,00 %
22.11.2015 22:10 0,8 C 85 % 1013,1 hPa 0,0 l/m 7,6 km/h (2 Bft) SW 222 0 min 0,000 mm 0,0 UV-I 0 W/m -1,4 C -0,4 C 14,5 km/h (3 Bft) 100,00 %
22.11.2015 22:15 0,8 C 85 % 1013,1 hPa 0,0 l/m 8,8 km/h (2 Bft) S-SW 195 0 min 0,000 mm 0,0 UV-I 0 W/m -1,4 C -1,5 C 14,5 km/h (3 Bft) 100,00 %
22.11.2015 22:20 0,8 C 86 % 1013,3 hPa 0,0 l/m 8,3 km/h (2 Bft) S 187 0 min 0,000 mm 0,0 UV-I 0 W/m -1,3 C -1,1 C 14,5 km/h (3 Bft) 99,17 %
22.11.2015 22:25 0,9 C 85 % 1013,3 hPa 0,0 l/m 8,1 km/h (2 Bft) S 185 0 min 0,000 mm 0,0 UV-I 0 W/m -1,3 C -0,8 C 14,5 km/h (3 Bft) 100,00 %
22.11.2015 22:30 0,9 C 85 % 1013,4 hPa 0,0 l/m 7,7 km/h (2 Bft) S-SW 198 0 min 0,000 mm 0,0 UV-I 0 W/m -1,3 C -0,4 C 12,9 km/h (3 Bft) 98,39 %
22.11.2015 22:35 0,9 C 85 % 1013,4 hPa 0,0 l/m 8,7 km/h (2 Bft) SW 225 0 min 0,000 mm 0,0 UV-I 0 W/m -1,3 C -1,3 C 14,5 km/h (3 Bft) 94,29 %
22.11.2015 22:40 0,9 C 85 % 1013,5 hPa 0,0 l/m 9,7 km/h (2 Bft) S-SO 153 0 min 0,000 mm 0,0 UV-I 0 W/m -1,3 C -2,2 C 14,5 km/h (3 Bft) 97,69 %
22.11.2015 22:45 0,8 C 85 % 1013,5 hPa 0,0 l/m 9,8 km/h (2 Bft) S-SW 200 0 min 0,000 mm 0,0 UV-I 0 W/m -1,4 C -2,4 C 16,1 km/h (3 Bft) 96,23 %
22.11.2015 22:50 0,8 C 85 % 1013,5 hPa 0,0 l/m 9,2 km/h (2 Bft) S-SW 211 0 min 0,000 mm 0,0 UV-I 0 W/m -1,4 C -1,9 C 12,9 km/h (3 Bft) 98,37 %
22.11.2015 22:55 0,7 C 85 % 1013,5 hPa 0,0 l/m 10,6 km/h (2 Bft) S-SW 194 0 min 0,000 mm 0,0 UV-I 0 W/m -1,5 C -3,2 C 17,7 km/h (3 Bft) 96,69 %
22.11.2015 23:00 0,7 C 85 % 1013,6 hPa 0,0 l/m 10,2 km/h (2 Bft) SW 225 0 min 0,000 mm 0,0 UV-I 0 W/m -1,5 C -2,8 C 19,3 km/h (3 Bft) 97,25 %
22.11.2015 23:05 0,7 C 85 % 1013,6 hPa 0,0 l/m 7,3 km/h (2 Bft) S-SW 194 0 min 0,000 mm 0,0 UV-I 0 W/m -1,5 C -0,2 C 12,9 km/h (3 Bft) 97,50 %
22.11.2015 23:10 0,6 C 85 % 1013,7 hPa 0,0 l/m 7,5 km/h (2 Bft) S 190 0 min 0,000 mm 0,0 UV-I 0 W/m -1,6 C -0,5 C 12,9 km/h (3 Bft) 99,13 %
22.11.2015 23:15 0,7 C 85 % 1013,9 hPa 0,0 l/m 6,1 km/h (2 Bft) SW 214 0 min 0,000 mm 0,0 UV-I 0 W/m -1,5 C 0,7 C 9,7 km/h (2 Bft) 99,19 %
22.11.2015 23:20 0,6 C 85 % 1013,9 hPa 0,0 l/m 5,3 km/h (1 Bft) SW 223 0 min 0,000 mm 0,0 UV-I 0 W/m -1,6 C 0,6 C 8,0 km/h (2 Bft) 98,17 %
22.11.2015 23:25 0,4 C 86 % 1014,0 hPa 0,0 l/m 5,6 km/h (1 Bft) S-SW 207 0 min 0,000 mm 0,0 UV-I 0 W/m -1,7 C 0,4 C 8,0 km/h (2 Bft) 100,00 %
22.11.2015 23:30 0,4 C 86 % 1014,1 hPa 0,0 l/m 6,9 km/h (2 Bft) S 190 0 min 0,000 mm 0,0 UV-I 0 W/m -1,7 C -0,1 C 9,7 km/h (2 Bft) 99,19 %
22.11.2015 23:35 0,3 C 86 % 1014,1 hPa 0,0 l/m 6,2 km/h (2 Bft) SW 234 0 min 0,000 mm 0,0 UV-I 0 W/m -1,8 C 0,3 C 9,7 km/h (2 Bft) 99,15 %
22.11.2015 23:40 0,2 C 87 % 1014,1 hPa 0,0 l/m 5,4 km/h (1 Bft) SW 221 0 min 0,000 mm 0,0 UV-I 0 W/m -1,7 C 0,2 C 8,0 km/h (2 Bft) 100,00 %
22.11.2015 23:45 -0,1 C 88 % 1014,2 hPa 0,0 l/m 4,5 km/h (1 Bft) SW 222 0 min 0,000 mm 0,0 UV-I 0 W/m -1,8 C -0,1 C 6,4 km/h (2 Bft) 99,21 %
22.11.2015 23:50 -0,2 C 88 % 1014,3 hPa 0,0 l/m 4,7 km/h (1 Bft) W-SW 240 0 min 0,000 mm 0,0 UV-I 0 W/m -1,9 C -0,2 C 8,0 km/h (2 Bft) 100,00 %
22.11.2015 23:55 -0,2 C 88 % 1014,3 hPa 0,0 l/m 5,5 km/h (1 Bft) W-SW 241 0 min 0,000 mm 0,0 UV-I 0 W/m -1,9 C -0,2 C 8,0 km/h (2 Bft) 99,07 %
_ Min-Zeit 23:50 09:35 00:00 - 00:00 - - - - - - 23:50 01:10 23:45 22:35
Minimum _ -0,2 C 77 % 997,8 hPa - 4,5 km/h (1 Bft) - - - - - - -1,9 C -7,8 C 6,4 km/h (2 Bft) 94,29 %
_ Max-Zeit 09:45 12:45 23:50 11:50 01:10 - - 09:35 10:00 00:00 09:35 13:30 15:55 01:10 00:40
Maximum _ 2,8 C 95 % 1014,3 hPa 0,2 l/m 23,1 km/h
W-NW (4 Bft)
- - 5 min 0,076 mm 0,0 UV-I 176 W/m 0,9 C 1,6 C 40,2 km/h
W-SW (6 Bft)
100,00 %
Durchschnitt _ 1,6 C 87 % 1005,0 hPa #0,6 l/m 12,1 km/h (2 Bft) W-SW - #5 min. #0,508 mm 0,0 UV-I 64 W/m -0,3 C -3,0 C 20,5 km/h (4 Bft) 98,53 %